Location: Tierra del Sol
(32.6128°N, 116.3319°W)
Time: 16:01:36
(UTC-07:00)

Tiangong 2 - Pass Details

Date: 14 October 2017
Orbit: 388 x 391 km, 42.8° (Epoch: 22 October)

Event Time Altitude Azimuth Distance (km) Brightness Sun altitude
Exits shadow 05:03:10 13° 13° (NNE) 1,266 3.9 -23.0°
Drops below altitude 10° 05:04:01 10° 28° (NNE) 1,420 4.3 -22.8°
Sets 05:06:51 0° 55° (NE) 2,276 5.9 -22.2°
